EW0765 Weather Reports


Display with metric or nautical units.
time (UTC)temp
F
wind
direction
speed
MPH
gust
MPH
rain 1hr
in
rain 24hr
in
rain mn
in
humidity
%
barometer
mb
20260505083042 65 246 1.0 6.0 0.00 0.05 0.02 68 1002.4
20260505081553 65 258 0.0 6.0 0.00 0.05 0.02 68 1002.6
20260505080048 64 209 1.0 9.0 0.00 0.05 0.02 69 1002.3
20260505074541 64 307 0.0 11.0 0.01 0.05 0.02 72 1002.2
20260505073040 63 256 0.0 6.0 0.02 0.05 0.02 75 1002.2
20260505071548 62 302 0.0 2.0 0.02 0.05 0.02 78 1002.0
20260505070035 63 242 0.0 4.0 0.02 0.05 0.02 77 1002.1
20260505064531 65 184 0.0 5.0 0.01 0.04 0.01 72 1002.4
20260505063033 64 169 0.0 4.0 0.00 0.03 0.00 69 1002.3
20260505061534 64 234 0.0 2.0 0.00 0.03 0.00 69 1002.4
20260505060028 65 286 0.0 2.0 0.00 0.03 0.00 69 1002.6
20260505054529 65 229 0.0 2.0 0.00 0.03 0.00 69 1002.7
20260505053036 65 252 0.0 2.0 0.00 0.03 0.00 69 1002.9
20260505051537 65 230 0.0 3.0 0.00 0.03 0.00 69 1003.1
20260505041523 65 205 0.0 5.0 0.00 0.03 0.00 68 1003.4
20260505040018 65 261 0.0 0.0 0.00 0.03 0.03 69 1003.5
20260505034517 65 297 0.0 5.0 0.00 0.03 0.03 68 1003.5
20260505033018 65 238 0.0 4.0 0.00 0.03 0.03 68 1003.6
20260505031517 65 111 0.0 1.0 0.00 0.03 0.03 68 1003.7
20260505030016 65 264 0.0 3.0 0.00 0.03 0.03 68 1003.8
20260505024517 65 217 0.0 8.0 0.00 0.03 0.03 67 1003.8
20260505023020 65 254 0.0 3.0 0.00 0.03 0.03 66 1003.8
20260505021516 65 288 0.0 0.0 0.00 0.03 0.03 65 1003.7
20260505020015 66 181 0.0 3.0 0.00 0.03 0.03 63 1003.8
20260505014515 67 286 0.0 4.0 0.00 0.03 0.03 61 1003.9
20260505013014 67 257 0.0 3.0 0.00 0.03 0.03 62 1003.8
20260505011520 67 146 0.0 1.0 0.00 0.03 0.03 61 1003.6
20260505010023 67 269 0.0 4.0 0.00 0.03 0.03 61 1003.5
20260505004513 68 126 0.0 2.0 0.00 0.03 0.03 61 1003.3
20260505003012 68 236 0.0 0.0 0.00 0.03 0.03 60 1003.2
20260505001512 69 238 0.0 3.0 0.00 0.03 0.03 59 1003.0
20260505000019 69 315 0.0 4.0 0.00 0.03 0.03 59 1002.8
20260504234511 69 236 0.0 4.0 0.00 0.03 0.03 59 1002.4
20260504233011 70 221 0.0 3.0 0.00 0.03 0.03 58 1002.2
20260504231510 70 305 0.0 6.0 0.00 0.03 0.03 58 1002.4
20260504230009 70 276 1.0 10.0 0.00 0.03 0.03 59 1002.5
20260504224507 70 241 0.0 7.0 0.02 0.03 0.03 63 1002.6
20260504223011 68 164 0.0 3.0 0.03 0.03 0.03 74 1002.8
20260504221517 68 244 0.0 0.0 0.03 0.03 0.03 78 1003.1
20260504220004 69 244 0.0 0.0 0.03 0.03 0.03 75 1003.3
20260504214502 72 198 1.0 8.0 0.00 0.00 0.00 61 1003.7
20260504213004 74 239 1.0 5.0 0.00 0.00 0.00 52 1003.0
20260504211600 74 198 2.0 9.0 0.00 0.00 0.00 52 1003.1
20260504210101 73 269 0.0 5.0 0.00 0.00 0.00 53 1003.4
20260504204605 73 268 1.0 6.0 0.00 0.00 0.00 51 1003.7
20260504203057 74 232 0.0 6.0 0.00 0.00 0.00 52 1003.6
20260504201556 74 202 0.0 8.0 0.00 0.00 0.00 50 1003.8
20260504200056 74 240 1.0 12.0 0.00 0.00 0.00 48 1004.0
20260504194558 74 234 1.0 10.0 0.00 0.00 0.00 48 1004.2
20260504193055 74 244 0.0 4.0 0.00 0.00 0.00 54 1004.3
20260504191549 73 218 0.0 8.0 0.00 0.00 0.00 51 1004.7
20260504190047 73 210 0.0 5.0 0.00 0.00 0.00 51 1004.8
20260504184544 73 126 1.0 7.0 0.00 0.00 0.00 50 1005.2
20260504183044 73 271 1.0 6.0 0.00 0.00 0.00 47 1005.2
20260504181546 72 220 2.0 8.0 0.00 0.00 0.00 48 1005.3
20260504180048 72 211 0.0 6.0 0.00 0.00 0.00 53 1005.5
20260504174538 72 217 0.0 4.0 0.00 0.00 0.00 52 1005.6
20260504173036 71 234 1.0 12.0 0.00 0.00 0.00 50 1005.8
20260504171535 71 340 0.0 7.0 0.00 0.00 0.00 51 1006.0